Flag for Nicaragua Weather past 2 weeks in Managua, Nicaragua

Now
86 °F

Passing clouds.


Feels Like: 88 °F
Forecast: 69 / 90 °F
Wind: 14 mph from East

Location: Managua A. C. Sandino

Current Time: Dec 21, 2014 at 12:04:27 PM

Latest Report: Dec 21, 2014 at 11:00 AM


Visibility: N/A

Pressure: 29.89 "Hg

Humidity: 52%

Dew point: 66 °F

Location of ManaguaLocation

Historic Weather in Managua — Graph

°F

Managua temperature yesterday

Maximum temperature yesterday: 86 °F (at 10:00 AM)
Minimum temperature yesterday: 70 °F (at 6:00 AM)
Average temperature yesterday: 79 °F

Past Weeks' High & Low Weather Summary

 TemperatureHumidityPressure
High91 °F (Dec 6, 12:00 PM)94% (Dec 9, 5:00 AM)30.01 "Hg (Dec 9, 5:00 AM)
Low66 °F (Dec 12, 4:00 AM)40% (Dec 8, 2:00 PM)29.77 "Hg (Dec 6, 4:00 PM)
Average80 °F67%29.88 "Hg
* Reported Dec 6 11:00 AM — Dec 21 11:00 AM, Managua, Weather by CustomWeather, © 2014

Note: Actual official high and low records may vary slightly from our data, if they occured in-between our weather recording intervals... More about our weather records

Advertising

Managua weather history for previous 24 hours

 ConditionsComfort  
Time TempWeatherWind HumidityBarometerVisibility
11:00 AM
Dec 21
86 °FPassing clouds.14 mph52%29.89 "HgN/A
10:00 AM86 °FPassing clouds.14 mph52%29.92 "HgN/A
9:00 AM82 °FPassing clouds.9 mph58%29.92 "HgN/A
8:00 AM79 °FPassing clouds.9 mph65%29.92 "HgN/A
7:00 AM73 °FPassing clouds.No wind78%29.89 "HgN/A
6:00 AM70 °FPartly sunny.No wind88%29.89 "HgN/A
5:00 AM72 °FPassing clouds.No wind83%29.89 "HgN/A
4:00 AM72 °FPassing clouds.No wind83%29.86 "HgN/A
3:00 AM70 °FClear.No wind94%29.86 "Hg10 mi
2:00 AM72 °FClear.5 mph88%29.89 "Hg10 mi
12:00 AM73 °FClear.7 mph83%29.92 "Hg10 mi
11:00 PM
Dec 20
75 °FClear.7 mph78%29.92 "Hg10 mi
10:00 PM73 °FClear.No wind89%29.92 "Hg10 mi
9:00 PM75 °FClear.5 mph83%29.92 "Hg10 mi
8:00 PM75 °FClear.5 mph89%29.89 "Hg10 mi
7:00 PM79 °FClear.5 mph79%29.86 "Hg10 mi
6:00 PM82 °FPassing clouds.5 mph62%29.83 "HgN/A
5:00 PM84 °FPassing clouds.5 mph58%29.80 "HgN/A
4:00 PM86 °FPassing clouds.9 mph62%29.80 "HgN/A
3:00 PM82 °FPassing clouds.9 mph70%29.83 "HgN/A
2:00 PM79 °FScattered clouds.9 mph79%29.83 "HgN/A
1:01 PMN/ADrizzle.14 mphN/AN/A4 mi
12:00 PM86 °FRain. Partly sunny.14 mph59%29.86 "Hg6 mi
Weather by CustomWeather, © 2014

See weather overviewHow to use our weather pages